Location: Frankfurt+am+Main
(50.1100°N, 8.4815°E)
Time: 07:26:56
(UTC+02:00)

Tiangong 2 - Visible Passes

Search period start: 25 May 2018 00:00
Search period end: 04 June 2018 00:00
Orbit: 382 x 385 km, 42.8° (Epoch: 24 May)

Date Brightness Start Highest point End Pass type
(mag) Time Alt. Az. Time Alt. Az. Time Alt. Az.
25 May 2.6 22:11:37 10° SW 22:14:01 20° S 22:16:22 10° ESE visible
25 May 3.3 23:47:48 10° WSW 23:48:34 14° SW 23:48:34 14° SW visible
26 May 2.5 22:48:04 10° SW 22:50:32 21° S 22:51:30 18° SSE visible
27 May 3.1 23:24:58 10° SW 23:26:31 16° SSW 23:26:31 16° SSW visible
28 May 2.8 22:25:05 10° WSW 22:27:25 19° S 22:29:18 12° SSE visible
29 May 3.3 23:02:25 10° SW 23:03:50 12° SSW 23:04:13 12° SSW visible
